August, Belize

3:06 AM CST on May 26, 2018 (GMT -0600)
August

Weather History for 78583 - October, 2012

Change the Weather History Date:

Sunday, October 28, 2012

  Actual Average Record
Temperature  
Mean Temperature 78 °F -  
Max Temperature 86 °F 85 °F - ()
Min Temperature 71 °F 71 °F - ()
Cooling Degree Days 14    
Growing Degree Days 28 (Base 50)    
Moisture  
Dew Point 71 °F    
Average Humidity 73    
Maximum Humidity 100    
Minimum Humidity 49    
Precipitation  
Precipitation 0.00 in 0.25 in - ()
Sea Level Pressure  
Sea Level Pressure 29.92 in    
Wind  
Wind Speed 4 mph ()    
Max Wind Speed 8 mph    
Max Gust Speed -    
Visibility 8.7 miles    
Events      
T = Trace of Precipitation, MM = Missing Value Source: Averaged Metar Reports

Daily Weather History Graph

Daily Weather History Graph

Search for Another Location

Airport or City:

Astronomy

Oct. 28, 2012 Rise Set
Actual Time 5:50 AM CST 5:23 PM CST
Civil Twilight 5:28 AM CST 5:45 PM CST
Nautical Twilight 5:02 AM CST 6:11 PM CST
Astronomical Twilight 4:37 AM CST 6:36 PM CST
Moon 4:40 PM CST (10/28) 4:47 AM CST (10/28)
Length of Visible Light 12h 17m
Length of Day
11h 32m
Waxing Gibbous, 99% of the Moon is Illuminated
Oct 28
Waxing Gibbous
Oct 29
Full
Nov 6
Last Quarter
Nov 13
New
Nov 20
First Quarter

Hourly Weather History & Observations

Time (CST) Temp. Heat Index Dew Point Humidity Pressure Visibility Wind Dir Wind Speed Gust Speed Precip Events Conditions
12:00 AM 77 °F - 74 °F 87% 29.91 in 12 mi WSW 2.3 mph - -   Mostly Cloudy
3:00 AM 74 °F - 72 °F 90% 29.88 in 12 mi West 5.8 mph - -   Partly Cloudy
5:00 AM 73.4 °F - 71.6 °F 94% 29.89 in 6.2 mi WNW 5.8 mph - N/A   Partly Cloudy
6:00 AM 72 °F - 71 °F 96% 29.93 in 12 mi WNW 3.5 mph - -   Scattered Clouds
6:00 AM 71.6 °F - 71.6 °F 100% 29.92 in 6.2 mi WNW 3.5 mph - N/A   Mostly Cloudy
7:00 AM 73.4 °F - 73.4 °F 100% 29.95 in 6.2 mi NNW 5.8 mph - N/A   Mostly Cloudy
8:00 AM 77.0 °F - 73.4 °F 89% 29.95 in 6.2 mi North 6.9 mph - N/A   Mostly Cloudy
9:00 AM 81 °F - 72 °F 68% 29.98 in 16 mi North 5.8 mph - -   Scattered Clouds
9:00 AM 80.6 °F 84.6 °F 71.6 °F 74% 29.97 in 6.2 mi North 5.8 mph - N/A   Mostly Cloudy
10:00 AM 84.2 °F 90.9 °F 73.4 °F 70% 29.97 in 6.2 mi North 3.5 mph - N/A   Scattered Clouds
11:00 AM 84.2 °F 89.6 °F 71.6 °F 66% 29.95 in 6.2 mi NNE 3.5 mph - N/A   Scattered Clouds
12:00 PM 85 °F - 72 °F 58% 29.93 in 16 mi North 6.9 mph - -   Partly Cloudy
12:00 PM 86.0 °F 93.4 °F 73.4 °F 66% 29.92 in 6.2 mi North 6.9 mph - N/A   Scattered Clouds
1:00 PM 86.0 °F 91.8 °F 71.6 °F 62% 29.90 in 6.2 mi NNE 4.6 mph - N/A   Scattered Clouds
2:00 PM 86.0 °F 91.8 °F 71.6 °F 62% 29.88 in 6.2 mi NE 6.9 mph - N/A   Scattered Clouds
3:00 PM 86 °F - 69 °F 49% 29.88 in 16 mi ENE 8.1 mph - -   Scattered Clouds
3:00 PM 86.0 °F 90.4 °F 69.8 °F 58% 29.87 in 6.2 mi ENE 8.1 mph - N/A   Partly Cloudy
4:00 PM 86.0 °F 88.2 °F 66.2 °F 51% 29.88 in 6.2 mi ENE 8.1 mph - N/A   Partly Cloudy
5:00 PM 84.2 °F 87.3 °F 68.0 °F 58% 29.89 in 6.2 mi East 4.6 mph - N/A   Partly Cloudy
6:00 PM 82 °F - 70 °F 59% 29.91 in 12 mi ENE 4.6 mph - -   Scattered Clouds
6:00 PM 82.4 °F 86.3 °F 69.8 °F 66% 29.91 in 6.2 mi ENE 4.6 mph - N/A   Partly Cloudy